Theta_e
313 313 313 313 313 312 312 311 311 310 309 307 303 305 298 296 295 305 307 308 305 300 293 296 295 292 293 296 296 296 294 293 294 293 294 293 295 293 292 291 290 291 290 289 289 289 287 288 287 290 291 292 293 296 296 296 294 295 293 295 296 302 293 290 291 295 297 299 301 301 301 301 298 298 300 300 298 298 297 299 304 300 300 298 298 295 300
313 313 313 313 313 312 312 311 311 310 309 307 306 301 297 296 296 300 307 308 305 297 289 289 291 293 294 295 293 296 294 294 292 292 293 292 292 291 291 292 293 290 293 291 288 291 284 291 289 289 293 290 297 296 296 296 293 293 293 291 298 291 294 291 289 289 292 295 299 299 300 301 298 297 298 298 298 299 300 301 303 298 301 301 298 293 300
313 313 313 313 312 312 311 311 311 311 311 310 306 298 298 297 299 299 303 306 302 293 293 292 290 291 290 292 291 292 293 295 294 293 292 295 293 292 290 292 293 292 293 290 291 291 289 286 292 291 292 292 298 297 296 297 294 296 298 300 302 293 293 292 286 284 283 284 286 290 293 294 296 296 296 297 296 297 299 297 300 294 302 303 299 300 306
313 313 313 312 312 312 311 311 311 311 310 310 306 300 299 294 291 296 299 301 299 297 298 295 292 291 291 290 291 292 290 294 295 295 293 295 294 294 293 294 294 292 292 289 289 289 292 289 288 291 290 292 294 297 296 296 295 297 299 301 299 293 294 293 291 289 289 291 288 290 293 294 292 294 295 296 297 297 297 298 297 296 301 300 303 304 305
313 313 313 312 312 312 311 311 311 311 310 310 307 302 297 297 292 292 290 297 297 295 297 294 294 290 293 288 291 289 291 292 293 296 290 295 293 293 293 292 290 290 290 288 288 289 288 291 290 289 289 291 293 298 297 297 297 299 298 300 296 293 290 292 292 292 292 293 292 293 293 291 293 293 293 296 295 296 295 295 297 301 298 294 305 309 304
313 312 313 312 312 311 311 311 311 311 310 309 308 298 299 292 294 296 297 291 289 291 292 295 293 293 293 291 293 290 290 290 289 294 294 295 295 291 292 293 292 291 289 289 286 288 288 289 287 290 291 290 293 292 295 294 297 298 297 299 294 290 287 291 291 290 292 293 293 294 293 293 293 294 294 294 296 296 294 296 298 299 297 297 305 311 307
313 313 313 313 311 311 312 311 311 311 310 309 306 297 299 298 297 296 300 293 294 294 294 295 293 292 294 293 292 290 290 289 291 291 291 293 292 293 287 290 291 292 292 290 287 289 284 285 290 289 289 289 290 289 292 295 297 296 295 296 296 292 288 290 291 290 291 292 293 294 292 293 293 293 294 295 295 296 297 297 299 299 300 302 303 307 306
312 313 313 313 312 312 312 311 311 311 309 310 305 301 296 294 294 294 299 297 296 296 295 294 293 290 293 290 291 291 290 289 291 293 291 289 290 294 290 290 292 292 292 291 288 289 290 289 287 291 290 290 291 289 290 290 296 296 293 293 296 290 288 293 292 289 290 292 294 294 293 293 292 294 296 296 296 297 300 302 304 305 303 303 303 304 305
312 312 313 312 312 312 312 312 311 311 311 306 302 301 303 302 304 301 295 292 295 296 294 293 292 290 291 290 291 292 291 290 293 292 295 292 289 292 290 292 292 293 292 291 291 293 292 292 292 293 292 288 293 290 291 294 291 293 292 293 292 292 289 292 290 286 287 292 292 293 294 294 293 293 294 296 297 299 307 305 308 305 303 304 303 302 304
312 312 312 313 312 312 312 311 311 310 310 305 304 298 307 305 307 305 299 291 296 292 294 293 292 289 292 292 292 291 291 293 294 290 295 295 296 295 294 294 292 292 292 291 293 295 295 295 296 296 297 297 296 296 295 295 292 292 291 294 290 291 289 287 288 285 286 292 292 291 292 293 291 293 295 298 303 306 309 309 309 307 307 305 304 304 314
312 312 313 313 313 313 313 313 313 312 311 305 302 301 304 301 298 300 299 290 293 294 292 292 291 293 293 294 292 294 293 294 295 288 289 294 295 297 296 294 292 291 291 294 298 299 298 299 299 299 297 296 296 296 295 295 295 294 293 292 292 292 289 287 290 284 286 290 291 293 291 285 288 303 304 305 304 306 305 304 305 307 308 307 309 310 313
312 312 313 313 313 313 313 313 313 310 309 310 309 304 307 307 304 300 295 289 290 294 292 290 292 293 292 294 293 292 292 293 293 295 291 293 295 297 296 295 294 289 297 301 301 300 300 300 299 298 297 296 296 296 295 294 294 297 296 292 291 290 290 288 290 285 284 290 291 289 284 287 301 304 306 307 308 309 307 305 304 305 307 307 308 309 309
312 313 313 313 313 313 314 313 313 311 310 311 309 303 308 309 303 299 297 293 289 292 291 292 295 295 295 294 294 294 295 296 296 296 296 294 294 296 297 295 293 296 301 299 299 298 293 291 292 293 293 294 294 294 293 293 293 295 295 295 292 289 288 289 288 287 289 287 288 281 286 298 301 303 304 307 307 308 309 305 303 304 304 305 305 306 308
312 313 313 313 313 314 314 314 313 313 311 310 308 307 309 308 301 299 298 292 291 294 294 293 294 294 294 294 293 294 296 295 296 297 293 296 294 295 297 298 299 301 301 300 297 295 291 291 287 288 288 290 290 289 292 293 293 293 293 294 295 292 291 289 285 290 282 286 287 288 295 296 300 300 299 301 300 302 305 301 301 302 304 305 304 306 307
312 313 313 313 314 314 314 314 314 313 312 310 311 309 309 309 306 302 302 298 291 294 296 289 293 294 294 294 295 293 293 294 293 293 296 297 295 297 298 300 302 302 302 297 294 294 290 288 284 282 283 282 279 282 291 289 294 294 294 294 295 294 288 290 285 286 289 286 284 287 287 286 294 299 303 305 306 306 306 305 302 303 303 305 304 305 305
312 313 313 314 314 314 314 314 314 313 312 308 311 309 309 311 310 307 303 298 295 288 294 297 297 295 294 295 296 294 292 292 293 293 293 295 295 298 300 302 302 302 299 297 295 291 289 284 282 281 279 281 285 283 282 288 288 293 294 294 294 294 294 292 286 285 287 286 284 285 284 291 296 299 303 306 308 307 307 305 300 303 303 304 304 304 305
312 313 313 314 314 314 314 314 314 312 312 309 310 309 308 313 308 305 301 299 297 293 300 300 299 298 296 295 296 295 295 292 293 290 289 291 294 296 299 302 302 299 298 295 294 290 286 285 285 284 284 286 282 282 285 284 284 285 291 293 291 289 290 288 283 284 286 286 284 284 290 286 297 301 303 307 310 309 306 297 298 301 305 305 304 303 303
312 313 313 313 314 314 314 314 314 313 312 310 311 308 308 312 311 309 304 300 295 295 300 302 299 296 294 296 294 297 298 296 295 297 293 294 295 295 296 298 295 299 300 293 293 288 286 285 282 282 281 288 287 285 279 284 282 284 284 285 284 285 286 287 283 284 286 286 286 289 291 299 301 302 304 307 309 306 298 294 299 305 304 304 304 304 304
312 313 313 313 314 314 314 314 313 313 313 309 312 310 309 312 312 310 305 301 298 293 301 303 304 300 302 303 300 300 299 297 297 292 291 292 294 297 298 297 297 292 297 291 291 288 285 284 288 286 283 285 287 282 285 283 283 288 288 283 284 286 287 288 287 284 284 287 285 286 292 299 301 303 305 305 302 295 295 301 306 303 301 302 302 304 305
312 313 313 313 313 313 314 314 313 313 312 309 310 307 309 312 313 311 305 299 301 298 301 302 303 300 303 299 298 297 298 298 298 295 293 289 298 298 295 290 296 297 294 294 287 290 286 283 285 286 284 284 285 287 284 285 288 286 286 290 287 286 284 284 283 287 288 288 286 285 282 295 301 302 303 302 297 294 301 305 302 303 301 301 301 303 304
312 312 313 313 313 313 313 313 313 312 313 312 308 308 306 312 312 312 312 306 300 296 299 304 304 303 303 302 303 302 299 296 297 295 297 296 299 296 285 286 291 293 289 291 285 286 287 285 286 285 287 285 286 287 282 284 286 290 289 287 287 290 285 287 287 292 285 286 284 285 292 296 301 300 293 297 298 301 303 303 302 302 301 300 301 302 304
312 312 312 313 313 313 313 313 312 312 312 312 310 309 305 308 312 313 313 311 302 299 301 305 306 305 307 307 306 306 304 302 303 303 298 296 300 297 296 297 296 296 297 296 292 290 292 289 290 286 285 286 289 284 286 284 282 286 291 291 283 292 288 291 285 293 288 288 291 294 298 300 301 303 300 301 302 303 303 303 303 302 301 302 301 301 303
312 312 312 313 313 313 313 312 312 312 312 313 311 309 305 308 310 313 312 304 307 307 308 307 307 307 307 308 310 309 308 308 307 306 304 298 296 299 297 297 296 300 300 300 292 291 291 291 286 290 286 287 284 284 287 286 284 287 285 291 291 296 296 297 295 291 295 297 298 298 297 298 300 302 303 302 302 303 304 303 301 303 304 304 301 302 302
312 312 312 312 312 312 312 312 312 312 312 312 311 307 305 307 308 309 308 306 302 298 302 302 300 299 300 301 306 311 310 308 308 308 309 305 295 296 300 300 300 299 299 300 301 294 293 293 292 293 285 290 290 286 283 283 284 288 288 288 290 295 297 294 289 292 290 287 295 295 295 297 300 302 302 304 303 303 304 304 304 304 305 305 304 304 304
311 311 312 312 312 312 311 311 311 311 312 311 311 311 310 308 309 308 304 298 299 297 293 298 300 302 305 307 311 310 311 311 312 310 308 306 303 298 296 299 302 298 297 300 303 298 298 290 291 290 285 292 292 285 291 286 286 292 285 287 288 289 299 292 291 291 289 289 294 295 297 303 302 304 301 300 301 302 304 305 306 305 306 307 307 306 304
311 311 312 312 311 311 311 311 310 311 311 311 311 309 306 307 310 311 308 306 305 301 295 294 298 305 306 306 305 307 311 311 311 309 308 307 306 305 305 304 303 306 303 303 301 296 294 294 293 291 287 289 298 288 288 292 290 294 289 287 293 294 298 287 292 289 292 295 295 296 297 301 300 301 301 302 301 302 302 304 305 305 305 306 307 307 306
311 311 311 311 311 311 311 311 311 311 311 311 311 310 309 309 311 309 306 304 300 295 296 295 299 302 305 303 307 310 311 310 310 309 308 308 307 308 306 304 301 302 302 299 300 298 297 295 293 289 292 291 297 293 295 293 292 289 288 292 297 293 288 293 292 288 287 288 291 294 289 290 295 298 300 301 302 302 303 304 304 304 305 307 306 307 307
311 311 311 311 311 311 311 310 311 311 310 310 310 310 310 309 311 311 311 310 303 294 295 295 298 302 306 302 307 310 310 309 309 308 307 307 307 307 305 304 303 301 299 297 294 295 294 291 289 295 296 296 293 292 297 297 296 291 290 291 296 291 291 291 286 287 286 293 295 296 296 295 296 298 300 302 302 302 302 302 303 304 306 307 306 305 306
311 311 311 311 311 311 311 311 311 311 311 308 309 308 309 310 312 312 312 313 310 303 299 299 302 301 298 301 307 308 310 309 308 307 307 306 306 306 306 305 303 303 300 299 296 295 293 293 297 294 293 298 295 292 294 288 288 285 289 294 296 297 299 296 294 294 295 297 297 298 296 294 297 300 301 302 303 303 302 304 305 305 306 307 307 307 306
311 311 311 311 311 311 310 311 311 312 311 310 310 309 307 308 312 311 312 313 311 307 298 295 295 299 304 304 304 307 307 308 308 307 306 306 306 307 307 305 304 305 302 298 297 292 295 295 297 300 302 304 295 294 290 290 287 289 295 296 297 298 298 299 299 296 293 298 298 298 298 298 300 301 302 303 304 304 303 304 305 305 307 308 307 307 309
311 311 311 311 311 311 310 311 311 312 309 310 309 304 302 300 307 314 311 314 314 307 300 297 295 300 300 304 304 305 307 307 306 306 305 306 306 307 307 308 306 306 301 301 300 298 299 294 296 297 302 301 298 293 289 289 286 289 293 296 296 297 297 297 299 300 299 299 299 299 300 300 301 300 301 302 303 304 304 304 306 308 308 308 309 310 309
311 311 311 310 310 310 311 311 312 311 311 309 307 306 307 307 311 314 314 313 313 305 299 295 296 297 297 300 303 307 308 309 309 308 309 309 306 308 306 307 304 306 303 300 300 299 297 299 297 297 297 299 299 293 292 289 286 288 294 296 297 298 299 299 299 299 300 300 299 297 297 298 299 297 297 301 302 303 303 304 305 307 308 309 310 311 311
311 310 310 310 310 310 311 311 312 311 310 310 309 308 308 307 309 312 313 313 310 303 302 298 296 296 296 298 305 305 308 307 306 307 304 309 306 307 305 307 306 305 306 302 297 296 300 299 300 297 299 300 295 292 290 288 290 295 296 297 297 298 298 300 299 299 299 299 299 294 293 295 297 300 301 303 303 304 304 305 306 308 309 307 307 307 308
310 310 310 310 311 311 311 312 312 310 309 307 307 310 313 309 310 309 314 313 306 305 304 298 296 296 297 302 300 304 308 304 303 305 302 306 308 306 303 304 304 301 302 300 300 299 301 301 297 298 301 297 297 292 286 291 296 296 297 297 298 298 298 298 298 298 298 298 299 299 299 300 300 301 302 302 302 304 306 306 307 307 307 308 307 307 308
309 308 309 310 311 312 312 310 310 309 307 307 308 311 313 311 310 311 313 310 301 299 298 298 298 295 296 298 296 302 308 305 302 303 301 304 309 304 304 300 302 298 298 306 300 299 297 297 300 295 291 298 293 286 288 292 295 297 297 297 298 298 297 295 296 298 298 298 299 299 299 300 299 298 299 300 301 303 304 305 307 307 305 306 307 307 307
309 309 310 311 311 312 312 310 310 307 307 308 310 312 312 313 313 314 314 313 307 299 297 293 295 294 295 291 294 302 310 304 304 305 304 305 304 305 304 300 295 299 303 301 297 300 296 301 298 289 295 290 287 290 293 296 295 296 296 297 299 298 297 297 297 297 298 298 298 298 298 299 298 298 299 301 301 302 304 305 307 307 305 305 305 306 307
310 311 312 311 312 311 308 308 310 309 309 311 313 314 314 314 313 313 310 308 308 309 301 296 293 296 298 295 299 301 306 299 304 302 301 302 300 302 301 299 296 300 301 298 298 297 299 306 297 289 289 288 290 298 299 299 298 297 298 299 300 300 300 299 300 298 296 296 297 297 297 297 297 298 298 299 300 302 303 304 306 306 305 305 305 305 305
310 309 312 310 310 308 308 308 309 313 315 313 313 309 307 307 301 301 302 301 304 305 300 299 293 299 300 298 298 306 305 301 305 301 301 303 299 298 302 299 298 299 290 293 296 301 300 298 294 290 291 298 300 300 300 301 302 302 301 301 300 301 301 301 299 297 295 294 294 295 296 296 296 297 297 298 299 301 303 305 308 310 309 307 306 307 306
308 311 310 308 310 309 309 311 313 314 313 313 312 306 302 303 301 299 299 299 300 298 300 297 297 300 300 297 302 308 305 302 300 300 298 303 300 294 300 294 300 299 289 291 296 304 292 293 293 292 289 295 297 299 302 302 303 303 304 304 303 303 302 301 301 298 296 294 295 296 296 295 295 296 298 298 299 301 303 305 307 309 309 309 308 307 306
311 309 308 308 310 310 311 312 313 312 310 306 307 304 302 303 300 296 301 296 296 300 299 297 302 300 303 302 302 301 309 305 299 299 300 300 305 297 300 299 298 295 287 288 292 299 291 287 291 289 287 294 295 299 302 302 302 303 303 303 304 303 303 301 301 301 300 299 299 299 299 299 299 298 298 298 298 299 301 303 305 307 309 310 310 309 307
309 310 309 311 311 308 310 312 312 310 307 304 304 302 300 294 302 304 302 298 297 302 304 305 303 302 303 301 302 301 308 311 306 306 304 299 305 304 296 291 301 291 287 287 296 298 295 290 288 286 288 295 298 301 302 302 302 303 303 304 304 304 303 302 301 301 300 299 299 299 299 299 299 299 299 299 299 299 300 302 303 304 307 308 309 309 309
311 313 313 311 309 310 310 309 308 306 306 307 298 292 293 297 302 302 301 293 296 304 304 304 303 304 304 306 305 306 306 310 309 306 301 297 302 299 296 296 297 289 286 294 299 296 292 286 286 286 294 297 300 302 301 301 302 302 303 304 303 304 303 302 301 302 301 300 299 299 299 299 299 299 299 299 299 299 299 300 301 303 304 306 308 310 311
307 310 313 311 309 308 307 300 306 302 290 289 287 288 293 289 295 293 296 302 305 303 303 309 308 308 308 310 307 308 307 310 305 302 300 298 301 300 296 290 291 286 290 301 295 291 287 285 285 289 296 299 301 301 301 302 303 303 303 304 304 304 304 303 303 301 302 301 300 299 299 299 299 300 300 300 299 299 300 301 302 302 303 303 304 307 309
313 312 310 309 305 307 306 290 302 302 291 289 289 287 291 290 293 296 293 296 301 303 306 302 300 299 298 307 306 305 306 306 306 303 302 301 299 295 292 288 289 296 300 293 292 286 287 290 292 294 299 301 301 301 302 302 302 302 303 303 304 304 304 304 303 302 302 302 301 300 300 300 300 300 300 300 299 298 299 299 301 302 302 302 302 303 306
310 303 297 297 293 299 293 287 297 291 288 292 293 294 294 291 294 295 294 301 300 299 303 302 302 302 301 306 307 308 306 303 305 299 296 300 295 295 292 290 296 296 291 286 288 289 289 288 297 299 299 299 300 301 303 302 301 300 300 301 303 304 304 303 302 302 302 301 301 301 300 300 300 299 300 299 300 300 299 298 300 300 300 300 301 301 303
309 301 294 291 287 291 292 289 288 290 298 297 297 299 297 298 297 297 302 302 301 302 301 301 302 302 303 308 303 301 306 304 301 298 300 299 292 289 295 297 296 289 287 287 283 282 285 291 296 298 300 301 302 303 304 302 302 302 301 300 301 303 304 304 303 303 302 302 302 301 300 300 299 299 299 300 300 300 300 300 300 300 300 299 299 300 301
303 302 294 293 289 292 297 291 295 300 300 301 302 302 300 301 302 301 301 302 301 303 303 303 301 304 302 302 303 302 303 303 296 298 300 293 292 294 299 292 285 285 282 280 282 285 289 295 299 300 301 302 302 303 303 302 302 302 301 301 302 303 304 304 304 303 303 303 302 301 300 300 300 300 300 299 299 300 301 301 301 301 300 299 300 300 300
297 300 298 291 288 293 293 299 301 301 302 302 302 301 301 300 299 301 305 303 304 302 301 302 300 300 301 302 303 296 297 298 295 295 298 294 296 291 288 289 287 288 288 285 287 292 294 298 300 301 302 304 303 303 302 301 301 302 302 302 302 303 304 304 304 304 304 303 302 301 301 301 300 300 300 300 300 300 300 300 300 300 300 300 300 300 299
309 295 296 293 299 297 300 301 299 298 302 302 299 299 300 300 301 303 306 304 303 304 303 301 301 300 296 299 297 295 293 297 291 289 295 293 288 284 285 282 281 282 291 293 292 295 297 300 302 303 303 303 303 303 302 301 301 302 301 302 302 303 303 303 304 304 304 303 303 302 301 302 302 301 300 300 299 299 300 300 300 300 300 300 299 299 299
298 297 299 295 299 301 300 299 299 298 302 302 302 304 302 301 301 305 306 305 305 303 302 302 303 297 294 295 290 291 291 295 294 292 290 288 289 290 288 282 284 285 290 296 297 300 302 303 304 303 303 303 303 302 301 301 301 302 301 302 302 302 301 301 303 304 304 304 303 302 302 302 301 301 300 299 300 301 301 300 299 299 299 300 299 298 298
301 296 299 305 300 301 301 299 299 299 299 301 303 303 303 304 302 304 306 305 304 303 301 295 292 292 291 290 287 286 288 295 293 291 288 288 292 291 287 285 289 294 296 300 302 303 304 305 305 302 302 303 303 303 302 301 301 301 301 301 302 301 301 301 301 302 303 304 304 303 302 301 302 302 302 302 301 299 299 300 301 300 299 299 299 299 298
295 297 302 305 305 303 303 303 303 301 302 304 303 304 302 303 303 304 305 303 304 298 296 297 295 289 286 287 290 294 296 292 290 290 289 291 293 290 290 292 294 297 297 297 299 302 306 305 304 304 303 303 303 303 302 301 301 301 301 301 301 301 301 301 301 301 302 303 304 304 303 303 303 303 303 302 301 299 297 297 300 300 300 300 299 299 299
Wind_Speed
18 18 18 18 16 15 15 16 18 19 19 13 12 7 3 5 2 8 11 16 8 4 6 2 4 4 3 4 1 3 3 4 5 6 8 4 5 2 3 3 1 3 2 1 1 1 3 3 4 1 3 5 5 1 3 3 7 6 3 5 1 7 4 5 8 10 13 16 13 4 2 6 5 4 2 4 4 6 6 5 4 10 11 12 11 13 9
18 17 17 16 14 13 14 15 15 16 16 9 9 5 4 4 4 5 7 16 5 8 4 4 4 3 3 4 5 4 5 7 8 6 7 6 4 3 3 2 3 2 3 1 1 1 3 1 3 3 3 4 2 3 2 3 5 4 4 3 5 6 3 2 4 4 6 10 5 4 3 3 2 1 1 2 4 7 8 7 5 7 12 15 10 15 7
18 17 16 14 13 12 13 13 13 13 13 10 7 5 4 4 3 4 4 11 11 7 2 2 3 4 4 4 9 7 3 5 5 5 3 6 4 2 3 4 2 3 4 1 1 2 4 4 2 5 3 4 2 5 4 1 4 4 7 8 7 5 5 3 5 8 11 13 12 8 5 1 4 2 3 0 5 8 4 9 7 9 8 15 14 10 8
16 16 16 13 13 12 12 13 12 12 11 10 7 4 3 4 3 3 4 6 7 7 5 5 3 3 4 4 5 5 5 3 5 5 3 7 5 2 2 3 2 8 5 2 3 3 1 4 2 1 3 3 3 4 5 3 4 7 10 9 4 4 5 6 7 6 8 4 4 1 4 5 3 4 8 7 1 1 2 3 3 10 3 11 12 9 9
17 16 16 13 12 11 11 12 12 12 9 8 5 3 2 1 3 4 6 4 6 5 5 6 3 2 2 2 3 6 6 5 2 7 1 8 7 3 5 6 4 6 5 4 4 3 4 3 5 7 9 6 6 1 5 5 7 10 8 4 4 5 8 9 10 13 14 13 9 9 9 11 11 11 11 7 6 3 3 5 5 8 4 11 4 5 13
17 17 17 14 11 10 11 11 11 10 9 7 4 3 3 1 2 1 1 2 4 7 7 8 5 4 1 3 1 5 6 7 7 4 3 6 5 4 3 5 6 4 4 4 3 3 5 6 7 4 4 5 5 7 4 6 5 7 5 1 3 4 8 9 9 14 15 14 12 9 8 10 11 13 14 14 10 6 7 9 9 8 6 5 8 7 6
16 17 16 14 11 10 10 11 10 9 9 5 3 3 3 2 1 1 4 1 3 3 3 6 6 4 4 2 5 5 6 6 5 3 5 5 3 6 4 6 8 5 2 1 3 3 5 4 1 3 7 8 8 7 7 7 7 6 6 3 3 5 8 9 10 14 15 15 12 7 11 12 13 14 14 14 12 11 9 11 11 13 10 8 15 16 4
16 16 16 14 11 10 10 10 9 8 9 4 2 4 2 3 3 2 3 1 2 1 2 2 3 3 5 2 4 5 5 6 7 4 2 4 2 2 4 7 7 7 5 1 4 4 6 9 11 6 6 10 7 8 8 8 3 5 6 4 2 4 5 4 7 9 13 14 11 10 12 13 13 12 13 13 10 9 10 11 12 11 11 13 16 16 10
15 15 15 14 13 10 10 9 8 7 5 3 3 2 1 0 1 1 2 3 1 0 2 3 3 1 3 3 3 4 3 5 6 6 4 5 2 4 8 8 10 5 4 5 7 9 9 9 11 12 11 12 7 6 4 5 7 6 6 3 4 5 7 7 7 8 11 7 8 9 9 9 13 15 15 12 9 7 2 1 4 3 4 7 9 11 7
15 15 14 14 13 11 10 8 7 5 1 2 1 2 2 1 0 1 1 1 3 3 1 2 2 3 3 3 5 3 3 3 5 6 1 2 5 6 7 8 8 9 7 9 8 7 9 12 13 13 13 13 13 13 14 12 12 10 9 7 8 6 6 6 5 8 11 8 1 4 7 11 13 15 13 9 7 3 5 5 7 5 4 6 9 6 7
14 14 14 15 13 13 12 8 6 4 3 3 2 1 2 2 2 2 1 1 1 1 3 2 4 3 4 4 4 1 4 4 4 4 2 4 5 4 5 9 7 7 8 9 9 11 13 14 15 13 14 17 18 16 17 20 18 15 11 8 9 9 8 7 4 4 6 3 2 3 6 11 9 4 6 12 9 7 7 6 7 8 6 5 7 9 11
13 14 14 14 13 12 11 10 7 3 1 2 0 2 1 1 2 2 1 2 1 1 2 3 5 5 5 5 4 5 6 7 6 4 8 6 10 10 8 7 5 6 2 8 11 12 14 15 16 15 16 18 19 20 20 20 18 16 14 14 10 10 8 8 5 5 6 6 5 6 11 10 6 3 5 5 7 7 11 10 11 10 11 13 11 11 12
13 14 13 14 14 13 11 10 7 6 3 3 3 3 2 3 1 2 2 1 2 3 4 4 4 5 5 6 5 5 6 6 7 7 7 8 9 8 4 4 6 9 10 13 13 12 10 10 10 11 13 13 14 17 20 21 20 18 15 15 13 12 10 7 7 6 8 8 6 6 6 3 4 8 8 5 1 4 11 9 13 13 12 13 12 14 14
13 13 14 14 13 12 11 8 6 5 4 2 3 4 2 4 3 1 2 1 2 2 2 5 3 3 3 4 5 7 7 7 6 4 4 3 6 9 8 4 6 9 10 9 9 6 7 3 8 7 7 5 8 10 14 18 19 19 20 17 15 14 9 7 6 7 8 7 7 8 6 4 7 2 5 6 2 3 4 4 8 12 12 13 12 14 15
13 13 14 14 12 11 8 6 5 4 3 2 2 3 3 3 3 2 1 1 2 3 3 3 3 5 5 6 5 6 6 7 8 6 6 6 6 4 6 9 10 9 7 5 3 2 2 5 6 8 6 3 5 3 2 5 10 20 19 17 15 13 12 7 6 6 11 9 4 5 2 6 6 4 6 4 5 5 3 3 4 10 13 13 13 13 16
12 13 13 12 11 10 9 8 6 3 3 3 2 2 3 3 3 2 1 1 1 3 1 3 2 2 5 6 6 7 6 7 7 8 5 2 3 7 6 7 9 6 2 2 1 4 4 3 6 6 4 6 3 5 3 3 4 11 17 17 16 13 10 4 7 5 5 10 8 4 5 4 4 7 10 8 5 7 7 4 3 6 12 14 14 14 15
12 13 12 11 11 10 10 8 6 3 2 3 2 1 2 3 4 4 2 2 3 4 1 1 1 2 4 5 4 2 2 5 6 6 5 6 8 8 9 10 6 1 2 3 2 3 4 4 4 6 8 3 5 6 5 3 5 9 16 16 16 11 6 5 7 10 8 8 7 4 2 1 4 11 13 11 9 7 8 9 4 7 10 12 14 14 15
13 12 12 11 10 10 9 8 7 4 0 4 2 1 2 2 3 3 2 2 2 3 3 3 3 3 3 3 5 4 2 2 3 4 5 7 7 5 8 8 6 1 0 5 3 4 6 4 8 8 9 2 2 3 5 4 5 12 13 13 10 8 6 8 12 10 10 11 8 5 3 1 9 14 17 13 7 6 10 7 5 6 9 11 12 13 14
12 11 10 10 10 10 9 8 6 4 1 3 2 2 2 2 3 4 1 2 2 3 1 1 2 5 4 3 6 5 4 5 5 5 6 6 2 4 9 4 3 4 3 4 3 4 4 4 3 4 6 3 1 6 6 5 4 8 13 11 7 6 5 5 6 9 10 9 8 6 1 4 12 15 14 10 3 7 5 5 3 6 8 10 11 11 13
10 10 10 10 9 9 9 8 5 4 1 5 2 2 2 1 3 5 4 2 2 5 7 7 5 7 3 4 5 4 4 4 4 4 4 5 3 8 3 0 2 3 5 4 6 2 3 6 6 2 3 6 3 4 4 2 7 5 5 3 2 5 6 6 9 6 6 6 5 3 4 3 15 18 6 10 2 3 5 3 6 7 7 8 10 9 12
10 9 10 9 9 8 7 5 3 2 2 4 3 1 2 1 1 3 4 2 1 4 4 0 2 6 5 7 8 8 7 7 3 3 3 6 5 5 3 4 7 5 4 6 7 7 3 5 5 3 3 4 5 5 10 7 5 10 6 3 4 4 4 2 3 2 4 6 5 2 3 6 11 9 4 5 7 6 7 5 2 7 7 8 9 9 11
9 9 9 9 8 8 5 5 3 1 3 4 4 1 1 1 2 2 3 4 4 5 4 1 3 7 9 10 10 9 10 11 9 6 6 7 2 4 4 5 6 3 1 1 3 3 0 3 4 4 7 5 2 5 9 7 9 4 4 3 3 6 3 2 1 2 2 1 3 3 3 4 5 4 3 4 5 6 9 8 6 6 6 8 7 10 13
9 9 9 9 8 7 5 4 3 2 2 2 4 2 2 1 1 3 2 2 4 5 6 7 7 8 6 8 10 10 9 8 7 6 7 6 4 3 5 4 3 1 1 1 4 6 6 4 4 4 5 2 5 6 3 5 2 4 5 6 3 5 8 4 2 3 6 1 5 6 7 7 4 1 2 4 4 5 9 10 9 7 5 6 8 11 12
9 9 8 8 7 5 5 4 3 1 2 3 4 2 2 2 2 2 2 3 2 6 2 2 3 1 2 3 2 2 4 6 9 10 7 7 5 3 2 4 2 2 2 2 2 4 5 5 4 2 3 5 7 4 7 5 7 8 3 5 4 4 8 5 4 8 4 4 8 12 14 12 2 5 2 2 5 7 8 9 10 9 8 8 9 10 13
9 8 8 7 6 5 5 4 2 2 3 4 5 2 1 1 2 2 1 2 2 3 2 3 2 2 2 3 4 6 8 8 6 8 8 10 9 5 1 3 1 2 7 7 1 3 2 4 3 2 4 3 5 5 5 4 4 9 6 7 6 3 9 1 8 6 6 4 8 12 13 6 8 3 6 9 10 10 9 7 8 9 8 8 9 11 12
9 8 7 6 6 5 5 3 3 2 2 4 6 4 2 1 2 3 1 0 1 1 3 2 0 0 4 5 3 7 9 7 8 10 11 11 10 4 4 3 3 1 4 3 2 5 5 2 2 2 4 3 5 4 6 7 3 5 7 9 8 8 7 5 10 4 6 2 7 14 13 1 2 9 10 9 9 10 13 11 10 9 10 10 10 9 11
9 8 7 6 6 5 5 4 2 3 3 4 5 4 3 2 2 3 1 1 1 1 2 2 3 4 4 6 4 7 7 5 3 7 7 6 6 3 4 5 7 7 6 7 3 2 1 3 3 4 4 4 5 4 3 5 6 5 7 10 11 6 8 9 7 5 7 8 9 13 8 6 11 13 12 13 15 14 14 13 11 10 10 9 10 11 11
9 8 8 6 6 6 4 4 4 2 4 4 3 4 3 4 3 4 2 1 1 1 2 4 4 7 6 3 5 7 7 4 4 5 4 5 5 4 3 4 5 5 5 3 3 4 5 6 5 4 3 3 5 4 5 4 3 4 9 11 11 9 11 9 8 8 7 9 11 9 9 11 11 13 15 14 13 14 15 12 10 11 10 9 9 12 11
10 8 8 7 6 6 5 5 4 3 4 5 2 2 4 6 4 4 4 2 2 1 2 5 6 4 3 5 6 4 6 6 6 5 4 4 4 2 2 1 1 1 0 2 2 3 3 3 3 4 4 6 4 5 7 9 10 11 12 14 12 10 10 10 11 10 6 10 12 11 9 10 12 14 15 15 13 13 15 13 8 9 11 10 10 9 10
10 9 8 6 6 6 5 5 4 3 6 3 3 2 1 1 2 4 5 4 3 1 1 3 2 2 2 2 1 3 5 6 7 7 6 4 4 3 2 2 1 0 1 1 1 4 2 2 3 2 3 5 4 4 3 5 7 8 11 13 13 13 13 11 10 10 9 12 12 11 11 12 12 13 13 14 14 13 13 13 10 9 9 10 10 10 9
10 9 7 6 6 7 6 6 6 5 7 3 2 1 1 1 1 3 6 5 3 1 2 2 4 4 3 1 1 1 2 3 5 5 5 3 2 1 1 1 1 2 1 2 1 2 1 4 4 6 3 6 4 3 3 6 7 7 13 14 13 14 14 13 12 9 9 12 12 13 10 9 10 12 12 11 11 12 13 13 13 11 12 12 12 9 10
10 8 7 6 6 6 6 6 6 8 5 4 2 0 0 0 1 5 6 5 3 2 1 1 2 1 2 1 1 1 1 0 0 1 1 0 0 0 0 0 1 1 1 1 1 1 3 2 3 4 4 6 4 2 3 4 8 9 13 13 12 12 12 13 12 12 12 11 13 12 10 12 11 12 11 16 16 14 13 14 14 11 12 11 10 10 10
10 8 7 7 6 6 6 6 8 7 4 3 5 3 2 2 5 8 7 4 1 1 1 1 2 1 1 1 2 1 1 1 1 1 1 1 1 1 1 1 1 0 1 1 2 1 1 2 2 3 2 1 3 3 4 7 9 11 12 12 12 12 13 13 12 11 12 12 12 10 12 14 15 16 14 13 13 13 12 12 13 11 8 8 8 8 8
13 11 7 7 6 5 5 6 7 5 1 2 3 2 3 5 6 7 5 1 2 0 0 1 2 1 1 1 1 1 1 1 0 1 1 1 1 1 1 2 2 1 3 3 0 1 0 1 2 3 2 2 1 2 4 9 10 11 12 11 12 12 11 12 12 14 15 14 14 12 12 12 13 12 12 13 13 13 12 10 10 10 10 8 9 7 5
10 5 5 7 6 6 8 7 4 2 2 1 2 1 3 7 5 7 5 2 2 1 1 1 0 1 2 1 2 2 2 1 1 1 1 1 2 1 1 1 0 1 1 1 1 1 2 2 3 3 6 5 2 3 2 9 12 11 11 12 13 12 13 13 13 15 14 14 14 13 14 15 15 13 14 15 14 13 13 11 9 9 9 8 7 5 5
3 7 8 8 9 8 5 1 1 2 1 1 1 3 8 6 5 3 1 2 1 1 1 1 0 1 1 1 1 1 1 1 2 1 1 1 1 2 1 1 0 1 1 1 0 1 1 3 2 4 5 3 7 5 7 9 11 11 11 12 12 12 12 14 15 15 15 15 15 14 15 15 15 14 14 13 13 14 13 11 10 7 7 7 7 6 6
4 8 11 9 5 2 1 1 0 2 1 2 5 9 10 7 3 1 2 1 1 0 2 1 1 3 4 1 1 2 1 1 2 2 2 2 1 1 1 1 0 1 2 0 1 1 1 2 2 3 5 6 5 6 8 8 9 10 11 11 11 12 13 13 14 14 15 15 15 15 15 16 15 14 14 15 15 15 14 13 11 9 7 7 6 5 5
5 3 2 1 2 1 1 2 2 1 2 11 11 6 2 1 2 0 1 1 1 2 1 1 2 1 1 1 2 2 2 1 1 1 2 1 2 1 1 1 1 0 0 1 2 1 2 2 2 3 3 4 3 5 8 7 7 7 8 9 10 11 11 11 14 13 15 13 13 16 16 16 17 17 16 16 16 15 12 11 11 9 6 6 5 5 5
2 1 1 1 1 1 1 3 2 1 4 2 2 1 2 2 2 1 1 1 1 2 2 2 2 2 4 3 3 2 2 2 1 1 2 3 3 2 2 1 2 0 0 1 1 2 0 1 2 2 4 6 7 9 9 8 8 7 8 8 9 9 10 12 14 14 15 14 14 16 16 15 15 16 15 15 15 13 12 12 11 11 9 7 4 3 4
1 1 1 1 1 1 2 1 1 1 2 2 2 1 1 2 1 0 2 1 1 2 2 3 2 3 5 4 3 0 3 2 2 1 1 1 1 1 2 1 2 2 0 0 0 1 1 1 1 1 3 6 7 10 9 8 8 8 7 8 9 10 10 12 13 13 14 14 14 15 15 16 16 14 13 14 14 14 14 13 12 12 12 10 7 4 4
2 1 1 1 2 2 2 1 1 1 2 2 2 2 1 1 1 0 1 0 1 2 2 1 1 2 3 2 3 3 2 0 1 1 1 1 1 1 2 0 1 1 0 0 1 1 1 0 1 1 4 6 6 8 8 7 7 7 7 8 9 9 10 11 13 14 15 14 14 13 14 15 16 15 15 16 15 13 14 14 14 14 14 13 12 8 4
1 1 2 4 3 2 1 1 1 2 2 2 0 0 0 2 1 1 1 1 2 1 1 3 2 1 1 5 3 2 2 2 1 2 2 1 1 1 1 1 1 1 1 2 1 1 1 1 1 1 4 6 7 8 8 8 7 7 7 7 8 8 9 11 13 13 14 14 13 13 13 15 16 15 14 14 14 14 16 16 17 16 15 14 13 12 10
1 1 1 2 1 1 0 1 1 1 0 1 2 1 2 1 1 1 2 2 1 1 1 1 2 1 1 1 1 1 0 2 3 2 1 1 1 1 1 1 0 1 1 0 0 1 1 2 2 2 4 5 6 7 8 8 7 6 6 6 7 7 8 9 11 13 13 13 13 13 13 14 15 15 14 15 16 17 17 17 17 14 14 13 14 14 13
2 1 1 1 0 1 1 0 1 1 0 1 1 2 1 2 2 0 3 2 1 2 1 3 2 2 2 2 1 2 3 2 1 1 1 2 2 1 1 0 1 2 1 1 2 3 2 1 1 3 4 4 5 7 7 8 7 7 6 7 8 7 8 8 10 12 12 12 13 13 12 14 15 15 16 15 16 16 14 15 16 16 16 16 16 15 14
2 0 1 0 0 0 0 1 1 2 1 1 1 2 1 5 5 2 3 1 2 5 1 1 2 2 3 1 0 1 1 1 2 2 0 1 1 0 1 1 2 1 1 1 1 1 0 2 2 2 4 6 7 7 6 6 6 5 5 6 7 8 7 8 9 10 10 11 13 14 13 13 14 14 16 16 15 15 15 15 14 16 16 16 15 16 14
2 1 0 1 3 1 1 1 1 1 1 2 2 3 3 3 3 5 1 1 3 4 5 4 1 2 1 1 1 1 1 1 2 0 1 1 1 1 2 2 1 2 2 2 1 2 3 4 3 3 4 5 6 6 5 5 5 3 3 4 6 7 7 7 7 9 9 9 10 11 12 12 13 13 14 15 15 16 17 16 15 13 13 16 17 14 14
1 1 1 1 1 1 1 0 2 2 1 2 3 3 3 4 3 5 3 2 5 4 4 1 1 2 2 1 1 1 1 0 1 1 1 1 1 2 1 1 1 0 2 2 2 1 2 3 2 3 4 4 5 5 5 5 5 5 4 3 4 5 6 5 5 7 8 9 10 10 11 12 12 12 13 14 16 16 16 17 17 16 16 15 13 14 15
1 0 1 1 2 1 1 2 1 3 3 4 2 1 1 1 2 4 2 3 2 1 3 1 2 1 1 1 2 1 2 2 1 2 2 1 1 1 1 1 1 2 2 1 0 1 2 2 2 2 3 3 4 5 5 5 5 5 3 3 4 5 5 5 4 4 6 7 8 9 9 10 11 12 13 13 14 15 15 16 16 15 13 13 12 13 15
1 1 1 1 1 1 2 1 1 4 3 0 1 2 2 3 4 6 1 2 1 3 1 1 1 1 2 2 1 1 1 2 2 1 1 1 1 0 1 1 0 0 2 3 1 1 1 1 1 1 2 3 3 4 4 4 3 3 3 3 4 4 3 3 2 2 3 4 5 6 7 7 8 9 11 12 13 14 13 13 15 15 15 15 13 13 13
0 0 1 0 3 2 1 1 1 4 3 2 1 2 1 2 4 3 0 1 1 1 2 1 2 2 2 2 1 1 1 1 1 0 1 0 0 1 1 1 2 1 1 2 2 1 1 0 0 1 1 2 3 3 4 4 4 3 3 3 3 3 3 3 2 2 2 3 3 4 5 6 7 7 9 10 10 9 11 12 13 14 15 15 15 13 13
1 0 1 1 3 3 1 5 7 6 5 4 4 4 1 2 1 3 3 2 1 0 4 2 1 2 1 1 0 1 0 0 2 0 1 1 2 1 1 2 1 2 2 1 2 2 1 1 1 0 1 1 1 2 2 2 2 2 2 3 3 4 3 4 3 3 2 2 1 2 4 5 5 5 5 6 8 10 10 12 13 13 13 13 14 14 14
0 0 1 0 2 2 3 3 2 5 2 6 7 3 2 3 4 5 1 2 3 3 2 2 2 2 1 1 1 1 1 1 1 1 3 1 2 2 2 2 2 1 1 1 1 2 2 2 1 1 0 0 1 1 1 1 1 2 3 3 3 3 4 4 3 3 2 1 1 1 3 4 4 4 5 8 9 10 11 10 11 11 11 11 12 12 13
Wind_Direction
336 337 334 338 336 336 337 338 337 341 348 0 356 330 10 20 313 305 308 334 323 72 79 62 48 55 24 301 202 291 26 18 7 16 13 20 7 30 60 55 257 90 25 186 36 13 291 257 249 307 242 266 287 79 55 349 318 309 301 309 277 296 256 253 263 280 273 264 270 264 235 190 191 198 300 314 271 351 318 300 294 211 207 212 222 237 251
336 335 335 337 336 337 338 337 337 343 2 0 338 9 36 334 308 316 320 338 322 60 59 44 37 52 23 44 52 38 53 28 21 19 19 17 358 6 5 129 22 56 18 257 196 358 303 174 249 244 207 282 127 161 181 37 317 331 8 329 8 309 180 261 286 267 235 235 159 148 80 107 77 88 6 334 330 318 302 278 285 252 215 215 217 238 231
336 338 336 340 337 338 338 338 337 348 355 2 356 8 334 301 256 260 313 6 32 71 17 69 57 49 32 38 47 19 71 39 32 350 30 12 4 305 71 8 2 49 347 42 355 283 264 282 233 283 272 275 130 236 234 232 303 284 304 298 324 274 282 278 231 217 203 199 200 201 175 343 332 301 245 143 338 354 329 220 211 239 210 215 227 234 241
337 338 336 341 337 338 339 338 343 345 354 350 357 351 310 17 14 357 346 20 57 82 68 50 46 56 27 70 43 27 22 19 15 2 101 28 359 353 312 19 64 34 9 42 340 324 280 245 307 260 273 282 263 214 204 236 280 295 302 304 303 273 265 244 256 271 273 358 30 307 274 316 296 299 299 298 284 261 246 304 283 235 197 221 229 233 253
338 334 337 339 339 338 339 341 341 345 349 352 349 15 49 266 40 350 360 314 48 57 54 43 32 46 313 53 1 29 24 348 357 12 57 12 358 350 55 36 26 15 8 13 321 291 291 275 285 268 280 279 283 218 236 255 274 283 286 289 292 261 263 251 257 257 261 285 294 310 310 287 287 293 291 290 284 273 253 225 213 20 337 244 182 171 244
338 335 339 338 343 340 338 340 338 340 349 343 342 30 358 47 74 12 4 339 8 8 24 8 20 69 253 79 322 25 15 24 13 344 67 343 18 354 157 63 52 34 24 326 280 292 291 281 269 283 265 302 295 295 240 255 270 286 278 284 289 277 261 261 259 261 269 272 279 288 285 267 270 274 277 282 281 263 248 251 266 284 251 274 332 286 264
336 336 341 338 339 339 336 335 336 340 340 348 12 39 45 33 15 32 349 28 38 21 351 346 0 23 23 68 22 18 14 16 21 342 314 342 28 28 343 347 352 350 360 305 275 285 293 273 307 298 311 305 313 293 295 260 255 258 261 257 256 266 262 273 273 281 279 272 268 260 267 274 268 261 265 261 265 266 257 260 251 239 241 264 273 279 301
338 335 338 339 334 338 334 333 335 344 334 322 16 58 32 40 7 21 353 292 320 324 0 358 350 61 356 16 22 0 2 356 350 349 319 327 13 13 333 333 335 331 334 311 273 287 294 299 296 304 304 295 267 275 266 288 269 241 253 265 209 243 273 297 316 282 266 266 265 250 254 265 267 263 258 258 261 268 261 258 258 247 245 246 256 266 288
336 335 334 335 337 337 329 333 338 344 343 358 18 10 39 3 339 307 345 353 326 122 11 1 355 60 39 34 22 339 15 355 348 315 267 242 276 340 333 329 320 312 303 282 257 269 279 282 274 281 279 275 280 272 278 225 262 232 235 235 245 234 270 299 296 290 278 264 255 258 242 252 267 269 259 252 241 239 236 184 30 258 225 241 250 267 258
335 337 333 333 334 332 328 333 334 356 24 334 292 25 47 346 40 55 306 354 8 354 330 323 281 35 27 351 4 338 326 334 338 335 68 277 253 283 307 321 315 298 290 285 292 306 289 278 277 271 264 258 257 249 251 247 250 253 243 248 260 253 268 269 271 268 266 261 270 290 282 267 258 243 231 220 187 216 169 93 53 45 308 249 233 245 16
336 335 334 330 332 336 337 336 337 360 348 349 346 325 39 22 336 339 207 17 20 137 343 13 4 24 335 4 342 310 300 315 338 336 335 299 288 281 290 294 297 292 281 294 312 302 290 281 275 266 256 249 247 243 241 239 238 236 241 242 245 245 249 254 258 272 271 307 305 279 256 238 238 26 155 176 167 156 137 63 46 31 14 330 317 316 330
335 335 337 330 336 337 335 333 329 327 188 281 130 280 229 181 257 212 267 28 2 54 341 335 327 327 325 336 325 315 314 317 318 300 288 293 289 298 293 284 256 282 309 303 303 301 292 273 256 251 249 250 248 244 240 238 234 228 225 230 232 231 233 243 220 247 271 298 285 232 230 233 72 65 61 149 109 122 114 81 48 26 12 360 349 343 335
338 334 334 335 335 331 332 328 323 320 270 249 216 257 217 183 241 242 242 225 294 319 337 333 316 298 297 297 304 306 308 302 301 306 291 284 291 291 267 285 284 296 315 310 312 307 304 303 295 273 269 263 253 244 238 232 229 222 219 216 222 225 223 230 230 239 270 275 221 213 213 74 143 68 47 34 77 83 138 87 52 28 15 359 346 339 334
337 333 333 334 332 334 335 334 324 328 311 201 227 227 226 214 231 162 196 204 290 279 285 304 308 324 331 321 312 315 316 318 316 290 282 263 273 285 293 256 274 302 303 309 296 301 293 304 313 310 285 271 274 263 238 223 220 212 211 208 210 217 216 214 237 221 236 234 223 229 360 295 210 189 28 5 5 354 165 147 63 32 10 5 345 340 342
337 330 333 333 337 338 349 345 346 337 325 187 238 241 238 217 221 206 238 251 272 298 277 287 9 335 324 318 326 321 323 331 331 332 301 285 266 250 289 304 306 302 308 300 308 297 292 305 296 318 297 296 307 277 11 251 210 208 203 200 196 198 209 180 204 230 229 248 249 235 218 223 168 92 359 331 300 295 275 124 112 31 8 5 355 351 347
331 330 333 334 341 347 349 351 342 338 335 154 220 238 243 241 187 184 194 196 323 306 264 252 306 304 319 321 325 318 329 327 337 320 319 269 275 308 300 307 306 302 280 285 257 303 299 287 304 313 303 289 274 286 244 214 220 191 191 186 186 189 197 163 189 254 222 228 235 219 200 187 51 341 333 328 302 262 229 219 120 33 2 4 358 350 350
331 332 336 340 344 346 346 351 349 341 340 181 240 238 272 177 186 199 195 182 202 261 340 262 279 283 292 300 312 328 0 332 333 344 329 335 334 317 313 330 325 324 12 306 304 304 307 299 278 271 276 261 282 294 280 241 171 159 166 172 180 170 172 170 223 236 247 229 224 232 256 285 350 338 329 325 312 240 215 217 179 16 359 359 359 351 347
332 334 339 343 345 344 348 348 352 348 34 180 215 258 269 162 194 169 204 185 231 281 275 259 220 298 295 326 306 320 307 274 260 288 285 306 307 322 334 334 337 15 290 337 325 314 316 309 330 319 302 202 255 276 294 301 195 160 161 163 164 176 187 198 220 227 232 231 237 278 274 85 352 331 324 323 311 231 206 198 80 9 11 356 349 352 351
331 336 340 342 343 341 348 349 350 338 35 184 193 276 264 232 197 189 131 210 193 266 284 254 235 263 284 275 276 294 286 293 287 293 317 319 343 301 300 308 310 336 352 338 291 325 316 282 229 270 291 298 265 307 291 292 128 133 137 145 157 171 193 196 221 230 226 222 232 233 296 35 346 328 322 342 269 189 173 75 78 53 23 356 347 343 345
335 335 340 339 340 340 344 352 350 342 62 175 210 243 314 238 207 196 181 206 233 278 281 275 261 264 221 255 284 276 278 258 249 272 297 306 28 335 326 175 165 293 310 345 338 348 276 311 323 294 281 307 296 303 295 353 40 70 139 111 99 146 183 197 194 208 229 227 234 233 240 50 358 327 328 11 310 59 346 67 61 52 27 355 341 339 336
337 336 334 337 334 339 342 352 12 348 360 154 178 176 54 60 251 231 227 231 239 295 297 127 230 247 253 255 252 257 261 257 221 259 289 292 324 321 355 353 327 333 324 346 339 339 338 306 329 315 288 279 318 319 344 335 57 40 25 80 84 22 252 171 156 238 225 195 207 210 22 335 338 353 44 42 38 16 18 11 6 45 27 359 332 332 335
335 333 331 329 330 334 347 357 14 335 325 173 179 147 189 321 303 243 215 205 221 235 281 312 248 271 259 258 261 253 247 249 248 233 266 286 257 274 298 280 288 281 316 298 300 293 257 306 293 306 320 311 286 324 328 13 41 331 30 348 124 4 310 317 242 67 327 20 56 36 305 308 320 3 82 93 48 17 10 10 9 26 15 349 331 329 331
332 331 331 330 328 333 348 341 341 253 312 170 167 219 220 61 354 326 206 249 233 255 263 271 278 269 261 249 244 242 244 243 251 230 211 225 267 247 246 252 273 243 255 214 309 309 297 303 297 305 296 313 336 318 352 29 28 356 25 13 60 32 4 325 278 334 323 245 29 7 341 337 321 116 0 31 0 347 348 352 345 356 1 340 331 326 327
329 329 329 325 323 330 325 320 320 238 295 164 162 160 232 227 261 315 228 258 324 312 265 173 293 63 358 331 315 258 231 227 224 227 209 193 226 246 196 231 288 272 236 335 298 294 310 300 286 316 301 334 333 335 1 13 33 336 356 22 345 348 3 11 8 323 302 125 24 7 337 324 229 144 128 1 350 336 335 334 335 330 329 331 328 326 322
326 327 324 323 318 314 317 315 309 267 217 188 161 143 98 198 242 197 252 322 10 20 345 317 272 330 321 268 226 249 235 224 197 182 184 199 216 235 335 76 52 1 316 321 227 266 240 304 313 334 325 356 342 353 354 346 38 357 27 25 349 7 346 316 357 352 16 341 14 353 332 335 117 77 5 330 331 323 314 317 319 320 312 312 310 321 320
323 323 321 314 312 305 310 315 270 223 179 191 171 168 195 169 201 210 260 193 215 326 320 323 350 155 310 299 327 339 319 288 212 182 187 197 211 246 356 341 326 185 270 265 280 312 317 277 306 317 349 337 3 347 351 355 304 336 24 25 348 308 324 26 342 336 334 1 13 354 335 271 356 346 335 321 314 314 309 312 315 314 312 312 309 313 318
320 317 313 309 304 305 301 284 251 193 187 179 188 189 197 231 235 204 224 162 222 188 205 262 303 300 344 333 338 333 347 359 127 161 175 188 205 220 260 285 297 303 314 318 313 302 330 321 344 344 347 318 331 307 313 350 349 1 14 8 355 359 29 347 349 9 19 7 346 350 343 324 316 319 320 315 310 306 303 307 310 314 311 307 309 311 313
316 312 306 300 297 295 291 258 248 204 185 182 189 213 215 220 215 209 229 247 5 61 321 300 302 316 311 243 355 6 8 44 106 141 157 168 181 194 221 277 304 329 356 350 29 28 28 21 10 327 309 345 337 341 346 320 323 24 14 6 359 11 356 358 12 352 333 341 342 333 311 290 286 296 303 301 302 300 297 297 300 301 299 298 303 303 307
311 305 300 297 292 284 275 249 235 231 184 162 186 218 238 232 233 212 211 202 245 158 264 274 269 279 7 4 332 25 46 62 81 101 116 138 159 141 166 190 172 345 253 34 66 53 31 19 335 347 358 329 311 332 345 23 25 26 6 349 357 354 350 354 351 337 322 343 334 329 316 299 298 299 298 298 296 296 291 290 286 276 286 289 282 273 281
307 302 294 291 286 277 263 242 226 214 157 167 214 234 220 145 185 205 192 186 203 224 351 351 346 67 304 237 55 81 68 73 85 89 96 110 112 117 117 145 116 111 352 5 343 44 355 340 322 300 327 338 352 333 5 2 31 24 3 356 355 348 351 348 349 349 337 335 332 324 311 299 298 299 299 294 294 292 289 287 289 288 280 278 279 280 273
302 299 290 277 271 266 255 241 221 160 157 189 222 239 49 359 146 166 165 182 200 168 119 155 254 318 311 139 239 93 109 82 84 79 76 65 65 71 108 103 32 343 9 356 12 20 340 16 344 351 336 12 5 6 353 10 24 10 1 357 355 348 346 344 342 344 338 338 331 320 307 312 318 315 302 299 303 303 297 295 291 287 281 278 274 268 273
300 287 280 269 263 252 234 215 186 158 183 201 226 3 355 307 334 148 156 159 161 189 155 321 267 203 333 330 353 13 247 57 176 135 98 190 99 52 70 331 48 342 34 39 352 292 23 309 335 332 353 345 335 9 328 355 13 355 341 352 355 346 343 344 347 349 345 342 339 332 337 338 334 327 311 310 305 300 292 288 287 276 274 268 265 264 266
297 283 262 257 253 238 225 207 174 175 197 268 305 271 245 215 136 141 150 138 111 140 177 278 301 5 295 74 320 289 78 218 170 347 152 313 315 307 284 18 331 46 342 273 22 7 353 326 311 330 23 350 3 356 343 6 7 345 347 350 351 350 347 344 348 349 345 346 351 347 335 329 325 321 313 308 310 309 304 297 295 286 265 253 247 248 252
302 288 259 237 227 205 178 166 160 159 354 281 257 204 174 151 149 153 157 117 103 84 214 277 320 316 291 356 253 195 259 300 209 353 203 70 32 238 26 330 354 337 13 7 153 252 334 265 353 317 283 12 15 335 21 357 349 350 349 350 353 352 352 348 352 353 353 350 349 344 334 331 328 324 325 325 321 318 314 306 302 293 283 265 255 248 244
315 279 212 184 179 155 140 132 132 185 235 260 251 268 139 159 157 168 171 153 177 207 229 166 106 328 325 159 245 195 132 218 243 287 273 66 348 350 245 199 192 144 11 289 315 28 341 17 289 357 15 313 330 30 13 347 352 351 349 347 350 352 354 357 354 355 352 350 348 346 339 343 343 340 335 330 326 323 321 317 309 296 289 280 274 250 223
41 126 144 144 139 136 124 114 134 157 229 226 57 118 145 142 136 122 12 66 310 267 289 347 7 232 271 299 298 96 204 196 126 209 28 317 167 29 349 45 159 142 232 280 59 348 358 341 278 24 328 10 34 5 355 350 349 348 349 351 346 352 354 354 345 349 352 350 349 349 346 350 353 347 338 336 334 330 328 323 322 306 285 280 272 263 254
127 131 128 129 134 167 187 159 63 241 358 56 124 120 109 102 71 95 50 342 47 314 271 189 255 220 203 300 301 261 198 206 155 204 184 212 231 48 264 260 314 347 218 240 34 59 61 285 44 49 25 31 5 345 353 348 345 345 348 345 348 347 351 353 352 352 353 350 355 358 354 354 354 353 347 346 344 339 336 335 325 313 298 281 270 250 227
115 92 163 161 164 89 187 198 178 64 126 133 131 127 89 307 186 49 332 216 203 192 197 157 256 308 60 189 281 92 210 237 155 233 184 184 155 172 244 249 101 185 165 350 5 35 284 70 40 46 44 353 312 350 1 341 334 331 337 347 350 348 345 348 354 357 357 350 358 359 356 356 358 357 355 350 348 341 334 329 337 341 313 291 266 263 257
82 157 87 44 248 211 144 95 71 318 142 113 250 247 197 150 152 228 193 178 192 221 162 204 264 189 193 226 255 207 281 320 183 221 228 155 232 187 197 191 134 184 136 245 123 348 348 52 36 41 34 348 352 357 353 354 346 344 343 345 345 346 345 354 359 4 6 4 0 1 359 352 351 351 353 355 350 349 348 354 351 357 353 330 307 260 240
188 235 204 207 243 63 68 88 318 132 192 218 158 252 221 169 256 42 135 214 215 181 158 249 219 203 211 252 300 203 155 222 296 280 208 149 193 304 116 205 109 220 221 356 52 178 266 32 56 13 8 351 347 348 354 350 350 349 352 352 348 352 357 359 4 7 9 7 7 6 4 2 2 1 356 354 353 354 354 358 0 1 8 6 351 308 265
187 165 185 228 127 126 135 134 199 198 208 221 198 196 215 178 167 9 218 314 270 247 192 260 169 239 202 216 214 244 87 277 89 321 247 304 92 232 161 125 101 234 156 236 145 174 235 93 59 44 337 331 332 344 347 349 354 346 348 356 357 356 353 357 4 8 8 9 9 8 7 3 1 358 2 4 1 358 1 5 8 5 11 15 15 10 334
215 332 50 94 104 106 144 155 162 214 215 234 194 323 262 265 226 195 163 323 350 323 217 186 259 262 243 197 215 208 165 261 238 203 255 213 118 263 114 133 190 278 17 47 112 203 266 2 76 19 325 332 346 347 347 345 347 342 338 344 352 352 355 2 4 2 7 11 10 10 9 8 9 8 5 6 8 7 9 11 11 10 11 16 21 24 24
18 97 114 92 136 102 186 227 164 207 74 341 36 353 10 15 24 330 316 236 99 225 283 157 265 274 207 179 178 218 228 163 225 159 219 306 96 263 172 135 9 29 55 178 255 9 33 52 21 338 308 338 353 349 345 339 337 335 334 343 350 347 352 359 1 3 2 9 11 12 12 15 16 13 9 13 14 15 16 16 11 3 4 15 25 25 24
91 63 181 4 31 147 171 355 230 242 350 111 96 321 324 319 329 187 281 302 185 262 179 310 338 346 311 150 284 155 167 161 104 143 196 170 210 170 154 122 61 72 183 164 34 35 35 118 254 280 319 342 357 359 349 337 334 333 339 343 334 343 354 358 2 4 1 6 13 15 18 18 17 18 19 19 18 15 12 19 14 12 14 19 26 24 18
169 23 41 150 29 255 115 318 335 99 350 314 181 249 209 314 318 185 280 359 174 299 358 178 263 221 260 121 343 291 251 286 109 273 208 191 204 102 292 87 109 159 49 65 39 53 339 356 319 312 353 359 358 346 344 332 331 334 333 316 327 341 346 356 4 5 5 7 12 13 17 17 19 20 21 23 25 25 24 21 14 20 19 23 25 27 13
196 236 71 31 314 308 84 254 7 2 251 175 214 209 238 253 259 266 231 132 259 276 301 328 4 234 263 167 277 13 151 203 219 170 60 238 262 101 77 107 59 96 69 69 60 9 3 328 326 351 347 351 345 335 337 335 329 342 343 342 328 329 333 347 359 6 5 2 7 14 16 18 21 22 23 22 24 27 30 26 19 19 19 29 26 22 19
95 52 82 115 187 286 74 275 224 217 282 208 223 202 236 270 238 270 278 209 256 283 305 325 217 255 299 97 203 197 138 301 293 54 269 285 30 99 153 259 60 58 127 153 231 296 326 318 342 358 344 346 340 339 341 349 344 4 5 318 304 321 323 332 358 8 3 1 7 9 18 19 20 23 27 29 29 29 29 31 29 25 32 36 25 24 28
252 294 96 245 257 200 226 241 348 287 219 234 243 144 276 5 296 270 190 197 249 301 290 272 229 190 188 115 250 11 26 348 249 84 8 21 159 58 33 91 116 168 168 205 121 262 279 304 349 344 345 332 323 331 351 357 351 358 354 326 328 334 342 334 348 17 12 10 11 9 10 14 19 22 25 27 31 29 28 30 32 32 26 23 26 28 27
117 135 200 225 213 215 240 55 339 290 283 148 243 226 211 229 256 268 292 151 221 251 242 239 346 271 359 29 2 351 313 25 324 8 312 38 356 12 342 283 9 335 190 207 278 270 307 322 358 303 312 326 344 345 351 352 344 348 354 339 337 341 2 9 1 31 50 34 21 18 13 14 17 21 27 28 30 30 26 27 34 37 37 34 26 27 31
169 290 63 150 275 240 181 211 246 267 278 307 268 236 192 247 269 282 146 229 119 134 172 148 54 20 17 333 350 337 324 340 3 229 279 9 113 146 220 283 196 221 324 194 234 240 253 236 172 264 349 348 347 353 346 347 353 3 1 351 348 3 32 24 25 53 70 69 52 42 31 28 26 24 26 29 26 19 24 31 33 36 38 38 39 35 33
28 158 282 151 254 299 144 292 303 302 291 299 347 330 322 308 328 348 19 323 350 104 53 46 38 51 16 20 30 299 344 144 252 275 304 305 133 210 251 289 326 190 259 242 260 254 261 143 185 16 33 346 348 350 348 336 355 4 360 9 7 2 10 25 25 22 46 77 87 88 67 52 37 31 27 22 26 31 32 31 32 35 36 38 40 43 45
60 284 254 272 228 248 251 300 255 252 287 37 323 316 13 329 350 302 344 308 323 75 141 227 113 72 85 230 240 306 299 229 247 228 268 167 183 252 246 256 295 251 277 269 251 189 182 155 160 132 111 302 315 350 7 5 12 38 48 47 42 27 17 13 21 29 28 59 71 99 105 87 62 44 47 43 36 40 39 34 29 30 34 34 38 41 42